Regional Weather Roundup
Issued by NWS

Home | Current Version | Previous Version | Text Only | Print | Product List | Glossary Off
Versions: 1 2 3 4 5 6 7 8 9 10 11 12 13 14 15 16 17 18 19 20 21 22 23 24 25 26 27 28 29 30 31 32 33 34 35 36 37 38 39 40 41 42 43 44 45 46 47 48 49 50

000
ASUS43 KDMX 210107
RWRIA

WEATHER ROUNDUP FOR IOWA
NATIONAL WEATHER SERVICE DES MOINES IA
800 PM CDT MON APR 20 2015

NOTE: "FAIR" INDICATES FEW OR NO CLOUDS BELOW 12,000 FEET WITH NO
SIGNIFICANT WEATHER AND/OR OBSTRUCTIONS TO VISIBILITY.

* - THESE STATIONS ARE NOT NWS STATIONS...THUS NOT UNDER NWS
QUALITY CONTROL.  THEY ALSO DO NOT REPORT WEATHER SUCH
AS PRECIPITATION OR FOG.

IAZ001>003-012>014-020>022-031>034-043>046-210200-
   NORTHWEST IOWA

CITY           SKY/WX    TMP DP  RH WIND       PRES   REMARKS
CARROLL *      CLEAR     50  16  25 NW13G22   29.69S
CHEROKEE *     CLEAR     50  12  22 NW13G24   29.69R
DENISON *      CLEAR     50  12  22 NW16      29.70R
LE MARS *      CLEAR     50   9  18 NW16G23   29.72R
ORANGE CITY *  CLEAR     46  19  34 NW17G25   29.69R
SHELDON *      CLEAR     46  25  42 NW13G24   29.66S
SIOUX CITY     PTCLDY    53   8  16 NW22G30   29.71R
SPENCER        PTCLDY    46  28  49 NW20G28   29.67R
STORM LAKE *   CLEAR     48  12  23 NW18G25   29.69R
$$

IAZ055>058-069>071-079>083-090>094-210200-
   SOUTHWEST IOWA

CITY           SKY/WX    TMP DP  RH WIND       PRES   REMARKS
ATLANTIC *     CLEAR     52  14  22 NW15G22   29.73S
AUDUBON *      CLEAR     48   9  20 NW8       29.72S
CLARINDA *     PTCLDY    52  23  32 W10       29.78S
COUNCIL BLFS * CLEAR     54  19  26 NW20G29   29.76R
CRESTON *      CLEAR     48  21  34 W14       29.74R
HARLAN  *      CLEAR     50  16  25 NW16      29.76S
LAMONI         CLEAR     49  28  44 W12       29.74S
RED OAK *      PTCLDY    52  23  32 NW8G15    29.76S
SHENANDOAH *   PTCLDY    54  25  32 W12G17    29.78S
$$

IAZ047>049-059>061-072>074-084-210200-
   CENTRAL IOWA

CITY           SKY/WX    TMP DP  RH WIND       PRES   REMARKS
AMES           CLEAR     49  24  37 NW16      29.67R
ANKENY *       CLEAR     50  16  25 NW13G21   29.69R
CHARITON *     CLEAR     50  19  29 W12       29.71S
DES MOINES     PTCLDY    52  15  23 NW13      29.69R
GRINNELL*      PTCLDY    48  25  40 W14       29.67R
KNOXVILLE *    CLEAR     50  19  29 W14G21    29.68S
MARSHALLTOWN   PTCLDY    45  35  68 NW12      29.66R
PELLA *        CLEAR     50  25  37 NW15      29.70R
PERRY *          N/A     48  21  34 NW12      29.69S
$$

IAZ004>006-015-016-023>025-035-036-210200-
   NORTH CENTRAL IOWA

CITY           SKY/WX    TMP DP  RH WIND       PRES   REMARKS
ALGONA *       CLOUDY    43  30  61 NW18G29   29.67R
CLARION *      CLEAR     43  34  70 NW13      29.66S
ESTHERVILLE    PTCLDY    41  27  57 NW16      29.66R
FORT DODGE *   PTCLDY    46  28  49 NW3       29.67S
MASON CITY     PTCLDY    40  31  70 W13       29.65S WCI  32
FOREST CITY *  MOCLDY    39  32  75 NW13      29.64S WCI  32
IOWA FALLS *     N/A     43  34  70 NW10      29.67R
$$

IAZ007>011-017>019-026>030-037>042-050>054-066-210200-
   NORTHEAST IOWA

CITY           SKY/WX    TMP DP  RH WIND       PRES   REMARKS
CEDAR RAPIDS   CLEAR     42  37  82 NW8       29.64S
CHARLES CITY * CLOUDY    41  34  75 W12G23    29.63S
CLINTON *      MOCLDY    41  34  75 W8        29.67S
DECORAH *      CLOUDY    39  32  75 W12G24    29.58S WCI  32
DUBUQUE        PTCLDY    42  31  64 W15       29.62R
MONTICELLO *   PTCLDY    43  34  70 W14G21    29.64R
OELWEIN *      CLOUDY    43  32  65 NW23G31   29.64R
WATERLOO       MOCLDY    43  32  65 NW13G23   29.65R
$$

IAZ064-065-067-068-078-210200-
   EAST CENTRAL IOWA

CITY           SKY/WX    TMP DP  RH WIND       PRES   REMARKS
DAVENPORT      MOCLDY    42  36  79 W8        29.66S
IOWA CITY      CLEAR     48  35  60 CALM      29.66S
MT. PLEASANT * PTCLDY    46  30  53 W6        29.70S
MUSCATINE *    PTCLDY    48  27  43 W9        29.67S
QUAD CITIES    CLOUDY    46  36  68 W9        29.66R
$$

IAZ062-063-075>077-085>089-095>099-210200-
   SOUTHEAST IOWA

CITY           SKY/WX    TMP DP  RH WIND       PRES   REMARKS
BURLINGTON     MOCLDY    50  29  44 W10       29.70R
FAIRFIELD *    MOCLDY    48  27  43 W8        29.69S
FORT MADISON * PTCLDY    48  28  46 SW5       29.72S
KEOKUK *       PTCLDY    50  28  43 W12       29.72R
OSKALOOSA *      N/A     46  28  49 W10       29.69R
CENTERVILLE *  CLEAR     48  28  46 W10       29.74R
OTTUMWA        PTCLDY    48  24  39 W8        29.69R
WASHINGTON *   PTCLDY    48  27  43 W10       29.67F
$$

ABBREVIATIONS USED IN REMARKS
   TC - TEMPERATURES IN CELSIUS
  WCI - WIND CHILL INDEX
   HX - HEAT INDEX
  VSB - VISIBILITY
$$




USA.gov is the U.S. government's official web portal to all federal, state and local government web resources and services.